Home   Weather   Uckfield   Past weeks
Flag for United Kingdom

Past Weather in Uckfield, England, United Kingdom — Yesterday and Last 2 Weeks

Now
54 °F

Sprinkles. Passing clouds.


Feels Like: 54 °F
Forecast: 55 / 50 °F
Wind: 2 mph from North

Location: London / Gatwick Airport

Current Time: Oct 17, 2019 at 7:15:52 pm

Latest Report: Oct 17, 2019 at 6:50 pm


Visibility: 5 mi

Pressure: 29.65 "Hg

Humidity: 100%

Dew Point: 54 °F

Location of UckfieldLocation

Past Weather in Uckfield — Graph

°F

Uckfield Temperature Yesterday

Maximum temperature yesterday: 61 °F (at 8:50 am)
Minimum temperature yesterday: 50 °F (at 12:20 am)
Average temperature yesterday: 55 °F

High & Low Weather Summary for the Past Weeks

 TemperatureHumidityPressure
High64 °F (Oct 13, 11:20 am)100% (Oct 3, 12:20 am)30.18 "Hg (Oct 3, 12:20 am)
Low36 °F (Oct 3, 4:50 am)54% (Oct 2, 6:20 pm)29.53 "Hg (Oct 13, 10:20 am)
Average54 °F91%29.79 "Hg
* Reported Oct 2 6:20 pm — Oct 17 6:20 pm, Uckfield. Weather by CustomWeather, © 2019

Note: Actual official high and low records may vary slightly from our data, if they occured in-between our weather recording intervals... More about our weather records

Advertising

Uckfield Weather History for the Previous 24 Hours

Scroll right to see more
 ConditionsComfort  
Time TempWeatherWind HumidityBarometerVisibility
6:20 pm
Thu, Oct 17
54 °FScattered showers. Passing clouds.3 mph100%29.65 "Hg5 mi
5:50 pm55 °FSprinkles. Broken clouds.5 mph94%29.68 "Hg6 mi
5:20 pm55 °FRain showers. Partly sunny.6 mph94%29.65 "Hg6 mi
3:50 pm57 °FPassing clouds.9 mph82%29.68 "HgN/A
3:20 pm57 °FPassing clouds.7 mph88%29.68 "HgN/A
2:50 pm55 °FScattered clouds.9 mph88%29.68 "HgN/A
2:20 pm52 °FRain showers. Broken clouds.9 mph100%29.68 "Hg5 mi
1:50 pm55 °FRain showers. Broken clouds.12 mph88%29.68 "Hg5 mi
1:20 pm57 °FSprinkles. Scattered clouds.13 mph82%29.68 "HgN/A
12:50 pm57 °FScattered showers. Scattered clouds.10 mph88%29.71 "HgN/A
12:20 pm57 °FSprinkles. Scattered clouds.8 mph88%29.71 "HgN/A
11:50 am55 °FRain. Scattered clouds.8 mph94%29.71 "HgN/A
11:20 am55 °FRain showers. Scattered clouds.6 mph88%29.71 "HgN/A
10:50 am54 °FScattered showers. Scattered clouds.5 mph94%29.74 "HgN/A
10:20 am54 °FSprinkles. Scattered clouds.6 mph88%29.74 "HgN/A
9:50 am54 °FSunny.3 mph88%29.74 "Hg10 mi
9:20 am54 °FPassing clouds.6 mph88%29.74 "HgN/A
8:50 am52 °FPassing clouds.3 mph94%29.74 "HgN/A
8:20 am50 °FPassing clouds.3 mph100%29.74 "HgN/A
7:50 am48 °FPassing clouds.5 mph100%29.74 "HgN/A
7:20 am48 °FPassing clouds.2 mph100%29.74 "HgN/A
6:50 am46 °FClear.2 mph100%29.74 "Hg10 mi
6:20 am46 °FClear.1 mph100%29.74 "Hg10 mi
5:50 am45 °FLight fog.1 mph100%29.74 "HgN/A
5:20 am46 °FLight fog.3 mph100%29.74 "HgN/A
4:50 am46 °FLight fog.1 mph100%29.74 "HgN/A
4:20 am48 °FClear.1 mph100%29.74 "Hg10 mi
3:50 am48 °FPassing clouds.1 mph100%29.74 "HgN/A
3:20 am48 °FPassing clouds.3 mph100%29.74 "HgN/A
2:50 am50 °FPassing clouds.2 mph94%29.74 "HgN/A
2:20 am50 °FPassing clouds.2 mph100%29.74 "HgN/A
1:50 am50 °FClear.3 mph100%29.74 "Hg10 mi
1:20 am50 °FLight rain. Passing clouds.1 mph100%29.74 "HgN/A
12:50 am50 °FPassing clouds.2 mph94%29.71 "HgN/A
12:20 am52 °FClear.3 mph88%29.71 "Hg10 mi
11:50 pm
Wed, Oct 16
52 °FClear.3 mph94%29.71 "Hg10 mi
11:20 pm52 °FClear.2 mph94%29.71 "Hg10 mi
10:50 pm52 °FClear.2 mph94%29.71 "Hg10 mi
10:20 pm52 °FClear.3 mph94%29.71 "Hg10 mi
9:50 pm52 °FClear.5 mph94%29.71 "Hg10 mi
9:20 pm52 °FClear.5 mph100%29.68 "Hg10 mi
8:50 pm52 °FClear.3 mph100%29.68 "Hg10 mi
8:20 pm54 °FClear.2 mph94%29.68 "Hg10 mi
7:50 pm54 °FClear.5 mph94%29.68 "Hg10 mi
7:20 pm54 °FClear.3 mph94%29.65 "Hg10 mi
Weather by CustomWeather, © 2019

See weather overview